Weather History for KFST - November, 2012

Change the Weather History Date:

Saturday, November 17, 2012

  Actual Average (KPEQ) Record (KPEQ)
Temperature  
Mean Temperature 61 °F -  
Max Temperature 70 °F 67 °F 87 °F (1942)
Min Temperature 52 °F 35 °F 18 °F (2014)
Degree Days  
Heating Degree Days 4    
Growing Degree Days 11 (Base 50)    
Moisture  
Dew Point 47 °F    
Average Humidity 68    
Maximum Humidity 83    
Minimum Humidity 44    
Precipitation  
Precipitation 0.00 in - - ()
Sea Level Pressure  
Sea Level Pressure 30.15 in    
Wind  
Wind Speed 14 mph (SSE)    
Max Wind Speed 18 mph    
Max Gust Speed 25 mph    
Visibility 10 miles    
Events      
Averages and records for this station are not official NWS values.
T = Trace of Precipitation, MM = Missing Value Source: NWS Daily Summary

Daily Weather History Graph

Daily Weather History Graph

Search for Another Location

Airport or City:

Trip Planner

Search our weather history database for the weather conditions in past years. The results will help you decide how hot, cold, wet, or windy it might be!

Date:

Astronomy

Nov. 17, 2012 Rise Set
Actual Time 7:20 AM CST 5:52 PM CST
Civil Twilight 6:54 AM CST 6:18 PM CST
Nautical Twilight 6:25 AM CST 6:47 PM CST
Astronomical Twilight 5:56 AM CST 7:16 PM CST
Moon 11:06 AM CST (11/17) 10:03 PM CST (11/17)
Length of Visible Light 11h 23m
Length of Day
10h 32m
Waxing Crescent, 20% of the Moon is Illuminated
Nov 17
Waxing Crescent
Nov 20
First Quarter
Nov 28
Full
Dec 6
Last Quarter
Dec 13
New

Hourly Weather History & Observations

Time (CST) Temp. Dew Point Humidity Pressure Visibility Wind Dir Wind Speed Gust Speed Precip Events Conditions
12:07 AM 53.6 °F 46.4 °F 77% 30.25 in 10.0 mi SSE 17.3 mph 24.2 mph N/A   Overcast
12:53 AM 54.0 °F 46.9 °F 77% 30.17 in 10.0 mi SSE 16.1 mph 21.9 mph N/A   Overcast
1:40 AM 53.6 °F 46.4 °F 77% 30.24 in 10.0 mi SSE 10.4 mph - N/A   Scattered Clouds
1:53 AM 52.0 °F 46.0 °F 80% 30.17 in 10.0 mi SSE 9.2 mph - N/A   Partly Cloudy
2:27 AM 53.6 °F 46.4 °F 77% 30.24 in 10.0 mi SSE 16.1 mph 23.0 mph N/A   Mostly Cloudy
2:40 AM 53.6 °F 46.4 °F 77% 30.24 in 10.0 mi SSE 16.1 mph 21.9 mph N/A   Scattered Clouds
2:53 AM 53.1 °F 46.9 °F 80% 30.15 in 10.0 mi South 13.8 mph - N/A   Scattered Clouds
3:11 AM 53.6 °F 46.4 °F 77% 30.23 in 10.0 mi SSE 13.8 mph 23.0 mph N/A   Mostly Cloudy
3:28 AM 53.6 °F 46.4 °F 77% 30.22 in 10.0 mi SSE 15.0 mph 24.2 mph N/A   Mostly Cloudy
3:53 AM 53.1 °F 46.9 °F 80% 30.15 in 10.0 mi South 13.8 mph 21.9 mph N/A   Overcast
4:40 AM 53.6 °F 46.4 °F 77% 30.22 in 10.0 mi SSE 13.8 mph 20.7 mph N/A   Partly Cloudy
4:53 AM 52.0 °F 46.9 °F 83% 30.14 in 10.0 mi SSE 9.2 mph 19.6 mph N/A   Partly Cloudy
5:53 AM 52.0 °F 46.9 °F 83% 30.14 in 10.0 mi SSE 12.7 mph - N/A   Clear
6:53 AM 52.0 °F 46.9 °F 83% 30.16 in 10.0 mi SSE 16.1 mph - N/A   Clear
7:53 AM 52.0 °F 46.9 °F 83% 30.17 in 10.0 mi SSE 13.8 mph - N/A   Clear
8:53 AM 54.0 °F 48.0 °F 80% 30.19 in 10.0 mi SSE 16.1 mph 23.0 mph N/A   Clear
9:53 AM 57.0 °F 48.0 °F 72% 30.19 in 10.0 mi SSE 18.4 mph - N/A   Clear
10:53 AM 60.1 °F 48.0 °F 64% 30.19 in 10.0 mi SSE 13.8 mph 23.0 mph N/A   Clear
11:53 AM 64.0 °F 48.0 °F 56% 30.16 in 10.0 mi SSE 11.5 mph - N/A   Clear
12:53 PM 66.9 °F 48.0 °F 51% 30.12 in 10.0 mi ESE 9.2 mph - N/A   Clear
1:53 PM 68.0 °F 48.0 °F 49% 30.09 in 10.0 mi East 12.7 mph - N/A   Clear
2:53 PM 70.0 °F 48.0 °F 46% 30.08 in 10.0 mi East 11.5 mph - N/A   Clear
3:53 PM 70.0 °F 46.9 °F 44% 30.06 in 10.0 mi ESE 13.8 mph - N/A   Clear
4:53 PM 66.9 °F 46.0 °F 47% 30.07 in 10.0 mi SE 15.0 mph - N/A   Clear
5:53 PM 64.9 °F 45.0 °F 48% 30.08 in 10.0 mi SE 12.7 mph - N/A   Clear
6:53 PM 64.0 °F 46.0 °F 52% 30.09 in 10.0 mi SE 16.1 mph 25.3 mph N/A   Overcast
7:53 PM 63.0 °F 46.0 °F 54% 30.11 in 10.0 mi SSE 16.1 mph 25.3 mph N/A   Partly Cloudy
8:53 PM 61.0 °F 44.1 °F 54% 30.11 in 10.0 mi SSE 18.4 mph 25.3 mph N/A   Mostly Cloudy
9:53 PM 60.1 °F 45.0 °F 57% 30.10 in 10.0 mi SSE 17.3 mph 24.2 mph N/A   Clear
10:53 PM 57.9 °F 46.0 °F 65% 30.08 in 10.0 mi SSE 13.8 mph - N/A   Clear
11:53 PM 57.0 °F 46.0 °F 67% 30.08 in 10.0 mi SE 11.5 mph - N/A   Clear